Teterboro, NJ

3:39 PM EST on November 20, 2019 (GMT -0500)
Teterboro

Weather History for KTEB - September, 2019

Change the Weather History Date:

Monday, September 30, 2019

  Actual Average Record
Temperature  
Mean Temperature 66 °F -  
Max Temperature 71 °F 69 °F 82 °F (2007)
Min Temperature 61 °F 48 °F 39 °F (1991)
Growing Degree Days 16 (Base 50)    
Moisture  
Dew Point 49 °F    
Average Humidity 57    
Maximum Humidity 68    
Minimum Humidity 48    
Precipitation  
Precipitation 0.00 in - - ()
Sea Level Pressure  
Sea Level Pressure 30.28 in    
Wind  
Wind Speed 6 mph ()    
Max Wind Speed 12 mph    
Max Gust Speed 17 mph    
Visibility 10.0 miles    
Events      
Averages and records for this station are not official NWS values.
T = Trace of Precipitation, MM = Missing Value Source: Averaged Metar Reports

Daily Weather History Graph

Daily Weather History Graph

Search for Another Location

Airport or City:

Astronomy

Sep. 30, 2019 Rise Set
Actual Time 6:51 AM EDT 6:40 PM EDT
Civil Twilight 6:24 AM EDT 7:07 PM EDT
Nautical Twilight 5:52 AM EDT 7:39 PM EDT
Astronomical Twilight 5:20 AM EDT 8:11 PM EDT
Moon 8:53 AM EDT (9/30) 8:13 PM EDT (9/30)
Length of Visible Light 12h 43m
Length of Day
11h 48m
Waxing Crescent, 5% of the Moon is Illuminated
Sep 30
Waxing Crescent
Oct 5
First Quarter
Oct 13
Full
Oct 21
Last Quarter
Oct 27
New

Hourly Weather History & Observations

Time (EDT) Temp. Dew Point Humidity Pressure Visibility Wind Dir Wind Speed Gust Speed Precip Events Conditions
12:51 AM 63.0 °F 45.0 °F 52% 30.30 in 10.0 mi North 6.9 mph - N/A   Clear
1:51 AM 63.0 °F 46.0 °F 54% 30.31 in 10.0 mi North 4.6 mph - N/A   Clear
2:51 AM 63.0 °F 46.0 °F 54% 30.30 in 10.0 mi North 5.8 mph - N/A   Clear
3:51 AM 62.1 °F 46.0 °F 56% 30.29 in 10.0 mi NNE 3.5 mph - N/A   Partly Cloudy
4:24 AM 62.1 °F 45.0 °F 53% 30.30 in 10.0 mi NNE 5.8 mph - N/A   Mostly Cloudy
4:51 AM 62.1 °F 45.0 °F 53% 30.30 in 10.0 mi NE 6.9 mph - N/A   Overcast
5:11 AM 62.1 °F 45.0 °F 53% 30.30 in 10.0 mi NNE 3.5 mph - N/A   Scattered Clouds
5:23 AM 62.1 °F 45.0 °F 53% 30.30 in 10.0 mi NE 4.6 mph - N/A   Mostly Cloudy
5:51 AM 62.1 °F 44.1 °F 52% 30.31 in 10.0 mi NE 6.9 mph - N/A   Mostly Cloudy
6:22 AM 62.1 °F 42.1 °F 48% 30.32 in 10.0 mi NE 4.6 mph - N/A   Mostly Cloudy
6:51 AM 61.0 °F 41.0 °F 48% 30.33 in 10.0 mi NE 8.1 mph - N/A   Overcast
8:51 AM 61.0 °F 42.1 °F 50% 30.34 in 10.0 mi ENE 9.2 mph - N/A   Overcast
9:51 AM 61.0 °F 44.1 °F 54% 30.34 in 10.0 mi East 6.9 mph - N/A   Partly Cloudy
10:51 AM 63.0 °F 48.0 °F 58% 30.34 in 10.0 mi East 5.8 mph - N/A   Overcast
11:51 AM 66.0 °F 51.1 °F 59% 30.32 in 10.0 mi ESE 5.8 mph 16.1 mph N/A   Partly Cloudy
12:51 PM 68.0 °F 51.1 °F 55% 30.31 in 10.0 mi Variable 6.9 mph - N/A   Partly Cloudy
1:51 PM 70.0 °F 52.0 °F 53% 30.28 in 10.0 mi SE 8.1 mph - N/A   Scattered Clouds
2:51 PM 69.1 °F 52.0 °F 54% 30.26 in 10.0 mi SE 8.1 mph - N/A   Overcast
3:51 PM 69.1 °F 54.0 °F 58% 30.25 in 10.0 mi SE 9.2 mph - N/A   Overcast
4:51 PM 68.0 °F 55.0 °F 63% 30.23 in 10.0 mi SSE 4.6 mph 17.3 mph N/A   Overcast
5:51 PM 66.9 °F 53.1 °F 61% 30.23 in 10.0 mi South 8.1 mph - N/A   Overcast
6:51 PM 66.9 °F 54.0 °F 63% 30.22 in 10.0 mi South 8.1 mph - N/A   Overcast
7:51 PM 66.0 °F 53.1 °F 63% 30.22 in 10.0 mi South 8.1 mph - N/A   Overcast
8:51 PM 66.0 °F 53.1 °F 63% 30.22 in 10.0 mi SSE 6.9 mph - N/A   Overcast
9:51 PM 64.9 °F 53.1 °F 65% 30.22 in 10.0 mi South 6.9 mph - 0.00 in   Overcast
10:51 PM 66.0 °F 53.1 °F 63% 30.22 in 10.0 mi South 6.9 mph - N/A   Overcast
11:51 PM 64.9 °F 54.0 °F 68% 30.21 in 10.0 mi SSW 11.5 mph - 0.00 in   Light Drizzle